Saint Bonnet de Bellac- Haute Vienne - France
Donnes mto: vendredi, 16/12/2011
Date Horaire Temp. E. Hum. E. P.atmo. Pluie Vent Direction Direction Ensoleilleme Solaire P. de rose Temp au vent Rafales
16/12/2011 00:00 9,5 C 92 % 1006,2 hPa 0,0 mm 18,4 km/h (3 Bft) O-SO 247 0 min 0 W/m 8,3 C 6,9 C 30,2 km/h (5 Bft)
16/12/2011 00:05 9,4 C 92 % 1005,9 hPa 0,2 mm 25,9 km/h (4 Bft) S-SO 202 0 min 0 W/m 8,2 C 6,1 C 40,0 km/h (6 Bft)
16/12/2011 00:10 9,3 C 92 % 1005,8 hPa 0,0 mm 15,1 km/h (3 Bft) S-SO 202 0 min 0 W/m 8,1 C 7,0 C 22,3 km/h (4 Bft)
16/12/2011 00:15 9,2 C 92 % 1005,6 hPa 0,1 mm 20,5 km/h (4 Bft) SO 225 0 min 0 W/m 8,0 C 6,3 C 25,2 km/h (4 Bft)
16/12/2011 00:20 9,1 C 92 % 1005,6 hPa 0,1 mm 20,2 km/h (4 Bft) S-SE 157 0 min 0 W/m 7,9 C 6,2 C 26,6 km/h (4 Bft)
16/12/2011 00:25 9,1 C 92 % 1005,5 hPa 0,0 mm 21,6 km/h (4 Bft) S-SO 202 0 min 0 W/m 7,9 C 6,1 C 25,2 km/h (4 Bft)
16/12/2011 00:30 9,0 C 92 % 1005,3 hPa 0,1 mm 18,0 km/h (3 Bft) S-SO 202 0 min 0 W/m 7,8 C 6,3 C 21,6 km/h (4 Bft)
16/12/2011 00:35 8,9 C 91 % 1005,2 hPa 0,1 mm 25,9 km/h (4 Bft) S-SO 202 0 min 0 W/m 7,5 C 5,5 C 40,0 km/h (6 Bft)
16/12/2011 00:40 8,9 C 91 % 1005,1 hPa 0,1 mm 17,6 km/h (3 Bft) SO 225 0 min 0 W/m 7,5 C 6,2 C 18,7 km/h (3 Bft)
16/12/2011 00:45 8,9 C 91 % 1005,0 hPa 0,1 mm 13,3 km/h (3 Bft) S-SO 202 0 min 0 W/m 7,5 C 6,8 C 16,9 km/h (3 Bft)
16/12/2011 00:50 8,8 C 91 % 1004,9 hPa 0,1 mm 19,1 km/h (3 Bft) SO 225 0 min 0 W/m 7,4 C 6,0 C 28,4 km/h (5 Bft)
16/12/2011 00:55 8,8 C 92 % 1004,6 hPa 0,1 mm 16,9 km/h (3 Bft) SO 225 0 min 0 W/m 7,6 C 6,2 C 19,1 km/h (3 Bft)
16/12/2011 01:00 8,8 C 92 % 1004,7 hPa 0,0 mm 16,2 km/h (3 Bft) SO 225 0 min 0 W/m 7,6 C 6,3 C 20,9 km/h (4 Bft)
16/12/2011 01:05 8,8 C 92 % 1004,5 hPa 0,1 mm 16,2 km/h (3 Bft) S-SO 202 0 min 0 W/m 7,6 C 6,3 C 19,4 km/h (3 Bft)
16/12/2011 01:10 8,8 C 92 % 1004,4 hPa 0,1 mm 15,8 km/h (3 Bft) SO 225 0 min 0 W/m 7,6 C 6,3 C 21,2 km/h (4 Bft)
16/12/2011 01:15 8,7 C 92 % 1004,2 hPa 0,2 mm 26,3 km/h (4 Bft) SO 225 0 min 0 W/m 7,5 C 5,2 C 28,8 km/h (5 Bft)
16/12/2011 01:20 8,6 C 93 % 1003,9 hPa 0,1 mm 16,9 km/h (3 Bft) SO 225 0 min 0 W/m 7,5 C 6,0 C 32,4 km/h (5 Bft)
16/12/2011 01:25 8,6 C 93 % 1003,7 hPa 0,1 mm 25,6 km/h (4 Bft) S-SO 202 0 min 0 W/m 7,5 C 5,1 C 37,8 km/h (5 Bft)
16/12/2011 01:30 8,6 C 93 % 1003,8 hPa 0,1 mm 15,1 km/h (3 Bft) S-SO 202 0 min 0 W/m 7,5 C 6,2 C 26,3 km/h (4 Bft)
16/12/2011 01:35 8,6 C 93 % 1003,6 hPa 0,1 mm 27,7 km/h (5 Bft) S-SE 157 0 min 0 W/m 7,5 C 4,9 C 37,8 km/h (5 Bft)
16/12/2011 01:40 8,6 C 93 % 1003,2 hPa 0,2 mm 19,1 km/h (3 Bft) S-SO 202 0 min 0 W/m 7,5 C 5,7 C 19,4 km/h (3 Bft)
16/12/2011 01:45 8,6 C 93 % 1003,0 hPa 0,1 mm 20,5 km/h (4 Bft) S-SO 202 0 min 0 W/m 7,5 C 5,6 C 30,6 km/h (5 Bft)
16/12/2011 01:50 8,6 C 93 % 1003,1 hPa 0,1 mm 19,8 km/h (3 Bft) O 270 0 min 0 W/m 7,5 C 5,6 C 24,8 km/h (4 Bft)
16/12/2011 01:55 8,6 C 93 % 1002,8 hPa 0,1 mm 20,5 km/h (4 Bft) S-SO 202 0 min 0 W/m 7,5 C 5,6 C 20,5 km/h (4 Bft)
16/12/2011 02:02 8,6 C 93 % 1002,9 hPa 0,1 mm 19,1 km/h (3 Bft) SO 225 0 min 0 W/m 7,5 C 5,7 C 22,7 km/h (4 Bft)
16/12/2011 02:05 8,6 C 93 % 1002,9 hPa 0,1 mm 26,3 km/h (4 Bft) S-SO 202 0 min 0 W/m 7,5 C 5,0 C 37,1 km/h (5 Bft)
16/12/2011 02:10 8,5 C 93 % 1002,4 hPa 0,1 mm 23,0 km/h (4 Bft) S-SO 202 0 min 0 W/m 7,4 C 5,2 C 27,0 km/h (5 Bft)
16/12/2011 02:15 8,5 C 93 % 1002,4 hPa 0,1 mm 27,0 km/h (5 Bft) SO 225 0 min 0 W/m 7,4 C 4,8 C 27,0 km/h (5 Bft)
16/12/2011 02:20 8,5 C 93 % 1002,3 hPa 0,0 mm 16,2 km/h (3 Bft) O-SO 247 0 min 0 W/m 7,4 C 5,9 C 24,8 km/h (4 Bft)
16/12/2011 02:25 8,5 C 93 % 1002,2 hPa 0,1 mm 21,6 km/h (4 Bft) SO 225 0 min 0 W/m 7,4 C 5,3 C 35,6 km/h (5 Bft)
16/12/2011 02:30 8,5 C 93 % 1002,0 hPa 0,0 mm 27,4 km/h (5 Bft) SO 225 0 min 0 W/m 7,4 C 4,8 C 28,1 km/h (5 Bft)
16/12/2011 02:35 8,6 C 93 % 1002,2 hPa 0,1 mm 15,1 km/h (3 Bft) SO 225 0 min 0 W/m 7,5 C 6,2 C 24,5 km/h (4 Bft)
16/12/2011 02:40 8,6 C 93 % 1001,8 hPa 0,1 mm 27,0 km/h (5 Bft) O-SO 247 0 min 0 W/m 7,5 C 5,0 C 43,2 km/h (6 Bft)
16/12/2011 02:45 8,6 C 93 % 1001,6 hPa 0,0 mm 22,3 km/h (4 Bft) S-SO 202 0 min 0 W/m 7,5 C 5,4 C 28,8 km/h (5 Bft)
16/12/2011 02:50 8,6 C 93 % 1001,4 hPa 0,1 mm 21,6 km/h (4 Bft) SE 135 0 min 0 W/m 7,5 C 5,5 C 34,2 km/h (5 Bft)
16/12/2011 02:55 8,6 C 93 % 1001,5 hPa 0,1 mm 27,0 km/h (5 Bft) S-SO 202 0 min 0 W/m 7,5 C 5,0 C 30,2 km/h (5 Bft)
16/12/2011 03:00 8,7 C 94 % 1001,4 hPa 0,0 mm 14,8 km/h (3 Bft) O-SO 247 0 min 0 W/m 7,8 C 6,3 C 24,1 km/h (4 Bft)
16/12/2011 03:05 8,8 C 94 % 1001,2 hPa 0,0 mm 23,4 km/h (4 Bft) S-SO 202 0 min 0 W/m 7,9 C 5,5 C 35,6 km/h (5 Bft)
16/12/2011 03:10 8,9 C 94 % 1001,1 hPa 0,1 mm 30,6 km/h (5 Bft) S-SO 202 0 min 0 W/m 8,0 C 5,1 C 30,6 km/h (5 Bft)
16/12/2011 03:15 8,9 C 94 % 1001,0 hPa 0,3 mm 20,9 km/h (4 Bft) SO 225 0 min 0 W/m 8,0 C 5,9 C 24,5 km/h (4 Bft)
16/12/2011 03:20 8,9 C 94 % 1000,8 hPa 0,0 mm 27,0 km/h (5 Bft) S-SO 202 0 min 0 W/m 8,0 C 5,4 C 44,5 km/h (6 Bft)
16/12/2011 03:25 9,1 C 94 % 1000,7 hPa 0,1 mm 28,1 km/h (5 Bft) S-SO 202 0 min 0 W/m 8,2 C 5,5 C 28,1 km/h (5 Bft)
16/12/2011 03:30 9,1 C 94 % 1000,6 hPa 0,0 mm 22,7 km/h (4 Bft) SO 225 0 min 0 W/m 8,2 C 6,0 C 25,2 km/h (4 Bft)
16/12/2011 03:35 9,1 C 94 % 1000,6 hPa 0,0 mm 17,6 km/h (3 Bft) S-SO 202 0 min 0 W/m 8,2 C 6,5 C 22,3 km/h (4 Bft)
16/12/2011 03:40 9,1 C 94 % 1000,5 hPa 0,2 mm 23,4 km/h (4 Bft) SO 225 0 min 0 W/m 8,2 C 5,9 C 23,4 km/h (4 Bft)
16/12/2011 03:45 9,2 C 94 % 1000,3 hPa 0,1 mm 19,8 km/h (3 Bft) SO 225 0 min 0 W/m 8,3 C 6,4 C 25,6 km/h (4 Bft)
16/12/2011 03:50 9,2 C 94 % 1000,2 hPa 0,1 mm 21,6 km/h (4 Bft) S-SO 202 0 min 0 W/m 8,3 C 6,2 C 30,6 km/h (5 Bft)
16/12/2011 03:55 9,3 C 94 % 1000,1 hPa 0,1 mm 24,1 km/h (4 Bft) O-SO 247 0 min 0 W/m 8,4 C 6,1 C 48,5 km/h (6 Bft)
16/12/2011 04:00 9,3 C 94 % 1000,1 hPa 0,1 mm 15,5 km/h (3 Bft) S-SO 202 0 min 0 W/m 8,4 C 7,0 C 22,3 km/h (4 Bft)
16/12/2011 04:05 9,4 C 94 % 999,9 hPa 0,1 mm 14,0 km/h (3 Bft) S-SO 202 0 min 0 W/m 8,5 C 7,3 C 19,8 km/h (3 Bft)
16/12/2011 04:10 9,4 C 94 % 999,8 hPa 0,0 mm 27,0 km/h (5 Bft) S-SO 202 0 min 0 W/m 8,5 C 6,0 C 32,4 km/h (5 Bft)
16/12/2011 04:15 9,4 C 94 % 999,7 hPa 0,1 mm 20,2 km/h (4 Bft) S-SO 202 0 min 0 W/m 8,5 C 6,6 C 28,8 km/h (5 Bft)
16/12/2011 04:20 9,4 C 94 % 999,4 hPa 0,1 mm 25,6 km/h (4 Bft) S-SO 202 0 min 0 W/m 8,5 C 6,1 C 36,4 km/h (5 Bft)
16/12/2011 04:25 9,4 C 94 % 999,4 hPa 0,1 mm 23,4 km/h (4 Bft) SO 225 0 min 0 W/m 8,5 C 6,3 C 33,1 km/h (5 Bft)
16/12/2011 04:30 9,4 C 94 % 999,4 hPa 0,1 mm 20,2 km/h (4 Bft) S-SO 202 0 min 0 W/m 8,5 C 6,6 C 27,4 km/h (5 Bft)
16/12/2011 04:35 9,5 C 94 % 999,3 hPa 0,1 mm 24,1 km/h (4 Bft) SO 225 0 min 0 W/m 8,6 C 6,4 C 24,1 km/h (4 Bft)
16/12/2011 04:40 9,5 C 94 % 999,1 hPa 0,1 mm 25,6 km/h (4 Bft) S 180 0 min 0 W/m 8,6 C 6,3 C 56,8 km/h (7 Bft)
16/12/2011 04:45 9,5 C 94 % 999,0 hPa 0,1 mm 14,4 km/h (3 Bft) O-SO 247 0 min 0 W/m 8,6 C 7,4 C 21,2 km/h (4 Bft)
16/12/2011 04:50 9,5 C 94 % 999,0 hPa 0,1 mm 26,3 km/h (4 Bft) O-SO 247 0 min 0 W/m 8,6 C 6,2 C 37,1 km/h (5 Bft)
16/12/2011 04:55 9,5 C 94 % 998,7 hPa 0,2 mm 16,2 km/h (3 Bft) S-SO 202 0 min 0 W/m 8,6 C 7,2 C 27,4 km/h (5 Bft)
16/12/2011 05:00 9,5 C 94 % 998,5 hPa 0,0 mm 27,4 km/h (5 Bft) S-SO 202 0 min 0 W/m 8,6 C 6,1 C 29,5 km/h (5 Bft)
16/12/2011 05:05 9,5 C 94 % 998,3 hPa 0,1 mm 16,2 km/h (3 Bft) SO 225 0 min 0 W/m 8,6 C 7,2 C 23,4 km/h (4 Bft)
16/12/2011 05:10 9,5 C 94 % 998,1 hPa 0,1 mm 21,2 km/h (4 Bft) S 180 0 min 0 W/m 8,6 C 6,6 C 32,0 km/h (5 Bft)
16/12/2011 05:15 9,6 C 94 % 998,0 hPa 0,1 mm 19,8 km/h (3 Bft) SO 225 0 min 0 W/m 8,7 C 6,9 C 27,4 km/h (5 Bft)
16/12/2011 05:20 9,6 C 94 % 997,7 hPa 0,0 mm 14,8 km/h (3 Bft) O 270 0 min 0 W/m 8,7 C 7,4 C 18,0 km/h (3 Bft)
16/12/2011 05:25 9,6 C 94 % 997,4 hPa 0,1 mm 22,7 km/h (4 Bft) S 180 0 min 0 W/m 8,7 C 6,6 C 30,6 km/h (5 Bft)
16/12/2011 05:30 9,7 C 94 % 997,2 hPa 0,0 mm 29,5 km/h (5 Bft) SO 225 0 min 0 W/m 8,8 C 6,2 C 38,5 km/h (6 Bft)
16/12/2011 05:35 9,7 C 94 % 997,2 hPa 0,1 mm 20,2 km/h (4 Bft) S-SO 202 0 min 0 W/m 8,8 C 7,0 C 20,5 km/h (4 Bft)
16/12/2011 05:40 9,8 C 94 % 996,9 hPa 0,0 mm 20,9 km/h (4 Bft) S-SO 202 0 min 0 W/m 8,9 C 7,0 C 23,0 km/h (4 Bft)
16/12/2011 05:45 9,8 C 94 % 996,9 hPa 0,1 mm 16,6 km/h (3 Bft) S-SO 202 0 min 0 W/m 8,9 C 7,5 C 20,9 km/h (4 Bft)
16/12/2011 05:50 9,8 C 95 % 996,9 hPa 0,0 mm 20,5 km/h (4 Bft) S-SO 202 0 min 0 W/m 9,0 C 7,1 C 33,1 km/h (5 Bft)
16/12/2011 05:55 9,9 C 94 % 996,7 hPa 0,0 mm 19,8 km/h (3 Bft) S-SO 202 0 min 0 W/m 9,0 C 7,3 C 24,5 km/h (4 Bft)
16/12/2011 06:00 10,0 C 94 % 996,6 hPa 0,1 mm 23,8 km/h (4 Bft) SO 225 0 min 0 W/m 9,1 C 7,0 C 34,6 km/h (5 Bft)
16/12/2011 06:05 10,1 C 94 % 996,5 hPa 0,0 mm 21,2 km/h (4 Bft) SO 225 0 min 0 W/m 9,2 C 10,1 C 24,5 km/h (4 Bft)
16/12/2011 06:10 10,2 C 94 % 996,4 hPa 0,1 mm 21,2 km/h (4 Bft) S-SO 202 0 min 0 W/m 9,3 C 10,2 C 26,3 km/h (4 Bft)
16/12/2011 06:15 10,2 C 94 % 996,3 hPa 0,0 mm 23,0 km/h (4 Bft) SO 225 0 min 0 W/m 9,3 C 10,2 C 30,6 km/h (5 Bft)
16/12/2011 06:20 10,3 C 94 % 996,2 hPa 0,1 mm 20,9 km/h (4 Bft) SO 225 0 min 0 W/m 9,4 C 10,3 C 21,6 km/h (4 Bft)
16/12/2011 06:25 10,3 C 94 % 996,1 hPa 0,1 mm 20,5 km/h (4 Bft) SO 225 0 min 0 W/m 9,4 C 10,3 C 23,0 km/h (4 Bft)
16/12/2011 06:30 10,2 C 94 % 996,0 hPa 0,1 mm 24,1 km/h (4 Bft) S-SO 202 0 min 0 W/m 9,3 C 10,2 C 36,4 km/h (5 Bft)
16/12/2011 06:35 10,3 C 94 % 995,8 hPa 0,0 mm 29,2 km/h (5 Bft) SO 225 0 min 0 W/m 9,4 C 10,3 C 29,2 km/h (5 Bft)
16/12/2011 06:40 10,3 C 94 % 995,7 hPa 0,2 mm 23,0 km/h (4 Bft) S-SO 202 0 min 0 W/m 9,4 C 10,3 C 39,2 km/h (6 Bft)
16/12/2011 06:45 10,3 C 94 % 995,6 hPa 0,0 mm 19,4 km/h (3 Bft) SO 225 0 min 0 W/m 9,4 C 10,3 C 28,8 km/h (5 Bft)
16/12/2011 06:50 10,3 C 94 % 995,5 hPa 0,1 mm 25,9 km/h (4 Bft) S-SE 157 0 min 0 W/m 9,4 C 10,3 C 34,2 km/h (5 Bft)
16/12/2011 06:55 10,3 C 94 % 995,6 hPa 0,1 mm 20,2 km/h (4 Bft) S-SO 202 0 min 0 W/m 9,4 C 10,3 C 22,0 km/h (4 Bft)
16/12/2011 07:00 10,3 C 94 % 995,4 hPa 0,0 mm 23,8 km/h (4 Bft) SO 225 0 min 0 W/m 9,4 C 10,3 C 56,4 km/h (7 Bft)
16/12/2011 07:05 10,2 C 94 % 995,5 hPa 0,1 mm 25,6 km/h (4 Bft) O-SO 247 0 min 0 W/m 9,3 C 10,2 C 49,4 km/h (7 Bft)
16/12/2011 07:10 10,2 C 94 % 995,4 hPa 0,1 mm 23,8 km/h (4 Bft) SO 225 0 min 0 W/m 9,3 C 10,2 C 48,2 km/h (6 Bft)
16/12/2011 07:15 10,2 C 94 % 995,3 hPa 0,1 mm 25,6 km/h (4 Bft) O 270 0 min 0 W/m 9,3 C 10,2 C 34,2 km/h (5 Bft)
16/12/2011 07:20 10,2 C 94 % 995,1 hPa 0,1 mm 28,4 km/h (5 Bft) SO 225 0 min 0 W/m 9,3 C 10,2 C 49,5 km/h (7 Bft)
16/12/2011 07:25 10,2 C 94 % 994,9 hPa 0,0 mm 21,6 km/h (4 Bft) SO 225 0 min 0 W/m 9,3 C 10,2 C 24,8 km/h (4 Bft)
16/12/2011 07:30 10,2 C 94 % 994,9 hPa 0,1 mm 19,1 km/h (3 Bft) S-SO 202 0 min 0 W/m 9,3 C 10,2 C 19,1 km/h (3 Bft)
16/12/2011 07:35 10,2 C 94 % 994,8 hPa 0,1 mm 21,6 km/h (4 Bft) O-SO 247 0 min 0 W/m 9,3 C 10,2 C 21,6 km/h (4 Bft)
16/12/2011 07:40 10,2 C 94 % 994,6 hPa 0,0 mm 27,7 km/h (5 Bft) S-SO 202 0 min 0 W/m 9,3 C 10,2 C 29,2 km/h (5 Bft)
16/12/2011 07:45 10,2 C 94 % 994,5 hPa 0,1 mm 21,2 km/h (4 Bft) SO 225 0 min 0 W/m 9,3 C 10,2 C 37,4 km/h (5 Bft)
16/12/2011 07:50 10,3 C 94 % 994,4 hPa 0,0 mm 24,5 km/h (4 Bft) S-SO 202 0 min 0 W/m 9,4 C 10,3 C 34,6 km/h (5 Bft)
16/12/2011 07:55 10,3 C 94 % 994,2 hPa 0,1 mm 27,4 km/h (5 Bft) SO 225 0 min 0 W/m 9,4 C 10,3 C 27,4 km/h (5 Bft)
16/12/2011 08:00 10,3 C 94 % 994,0 hPa 0,0 mm 33,8 km/h (5 Bft) S-SO 202 0 min 0 W/m 9,4 C 10,3 C 51,1 km/h (7 Bft)
16/12/2011 08:05 10,3 C 94 % 994,0 hPa 0,0 mm 21,6 km/h (4 Bft) O-SO 247 0 min 0 W/m 9,4 C 10,3 C 30,6 km/h (5 Bft)
16/12/2011 08:10 10,3 C 95 % 993,8 hPa 0,1 mm 29,2 km/h (5 Bft) SO 225 0 min 0 W/m 9,5 C 10,3 C 30,6 km/h (5 Bft)
16/12/2011 08:15 10,4 C 95 % 993,6 hPa 0,0 mm 21,6 km/h (4 Bft) SO 225 0 min 0 W/m 9,6 C 10,4 C 32,0 km/h (5 Bft)
16/12/2011 08:20 10,4 C 95 % 993,4 hPa 0,0 mm 24,8 km/h (4 Bft) SO 225 0 min 0 W/m 9,6 C 10,4 C 34,9 km/h (5 Bft)
16/12/2011 08:25 10,5 C 95 % 993,2 hPa 0,1 mm 22,0 km/h (4 Bft) SO 225 0 min 0 W/m 9,7 C 10,5 C 33,5 km/h (5 Bft)
16/12/2011 08:30 10,5 C 95 % 993,3 hPa 0,0 mm 23,0 km/h (4 Bft) S-SO 202 0 min 0 W/m 9,7 C 10,5 C 49,0 km/h (7 Bft)
16/12/2011 08:35 10,6 C 95 % 992,8 hPa 0,1 mm 22,3 km/h (4 Bft) SO 225 0 min 0 W/m 9,8 C 10,6 C 52,1 km/h (7 Bft)
16/12/2011 08:40 10,6 C 95 % 992,7 hPa 0,0 mm 19,8 km/h (3 Bft) SO 225 0 min 0 W/m 9,8 C 10,6 C 22,7 km/h (4 Bft)
16/12/2011 08:45 10,6 C 95 % 992,5 hPa 0,1 mm 22,0 km/h (4 Bft) SO 225 0 min 0 W/m 9,8 C 10,6 C 30,6 km/h (5 Bft)
16/12/2011 08:50 10,6 C 95 % 992,3 hPa 0,0 mm 24,8 km/h (4 Bft) S-SO 202 0 min 0 W/m 9,8 C 10,6 C 42,1 km/h (6 Bft)
16/12/2011 08:55 10,6 C 95 % 992,0 hPa 0,1 mm 17,6 km/h (3 Bft) SO 225 0 min 0 W/m 9,8 C 10,6 C 25,9 km/h (4 Bft)
16/12/2011 09:00 10,6 C 95 % 991,9 hPa 0,1 mm 21,6 km/h (4 Bft) S-SO 202 0 min 0 W/m 9,8 C 10,6 C 28,4 km/h (5 Bft)
16/12/2011 09:05 10,8 C 95 % 991,6 hPa 0,2 mm 18,0 km/h (3 Bft) O-NO 292 0 min 0 W/m 10,0 C 10,8 C 32,8 km/h (5 Bft)
16/12/2011 09:10 10,8 C 95 % 991,5 hPa 0,1 mm 18,0 km/h (3 Bft) S-SO 202 0 min 0 W/m 10,0 C 10,8 C 27,7 km/h (5 Bft)
16/12/2011 09:15 10,8 C 95 % 991,4 hPa 0,2 mm 24,5 km/h (4 Bft) SO 225 0 min 0 W/m 10,0 C 10,8 C 38,2 km/h (6 Bft)
16/12/2011 09:20 10,9 C 95 % 991,2 hPa 0,2 mm 23,8 km/h (4 Bft) O-SO 247 0 min 0 W/m 10,1 C 10,9 C 28,4 km/h (5 Bft)
16/12/2011 09:25 10,9 C 95 % 991,1 hPa 0,1 mm 20,5 km/h (4 Bft) SO 225 0 min 0 W/m 10,1 C 10,9 C 27,0 km/h (5 Bft)
16/12/2011 09:30 10,8 C 95 % 990,7 hPa 0,2 mm 22,0 km/h (4 Bft) S-SO 202 0 min 0 W/m 10,0 C 10,8 C 23,8 km/h (4 Bft)
16/12/2011 09:35 10,8 C 95 % 990,7 hPa 0,2 mm 29,2 km/h (5 Bft) SO 225 0 min 0 W/m 10,0 C 10,8 C 37,4 km/h (5 Bft)
16/12/2011 09:40 10,8 C 95 % 990,4 hPa 0,2 mm 33,8 km/h (5 Bft) S-SO 202 0 min 0 W/m 10,0 C 10,8 C 37,1 km/h (5 Bft)
16/12/2011 09:45 10,8 C 95 % 990,5 hPa 0,2 mm 18,4 km/h (3 Bft) O-SO 247 0 min 0 W/m 10,0 C 10,8 C 18,7 km/h (3 Bft)
16/12/2011 09:50 10,8 C 95 % 990,2 hPa 0,2 mm 14,0 km/h (3 Bft) SO 225 0 min 0 W/m 10,0 C 10,8 C 15,5 km/h (3 Bft)
16/12/2011 09:50 10,8 C 95 % 990,2 hPa 0,2 mm 14,0 km/h (3 Bft) SO 225 0 min 0 W/m 10,0 C 10,8 C 15,5 km/h (3 Bft)
16/12/2011 09:52 10,8 C 95 % 990,0 hPa 0,1 mm 29,2 km/h (5 Bft) S-SO 202 0 min 0 W/m 10,0 C 10,8 C 35,6 km/h (5 Bft)
16/12/2011 09:52 10,8 C 95 % 990,0 hPa 0,1 mm 29,2 km/h (5 Bft) S-SO 202 0 min 0 W/m 10,0 C 10,8 C 35,6 km/h (5 Bft)
16/12/2011 09:53 10,9 C 95 % 990,0 hPa 0,1 mm 15,1 km/h (3 Bft) SO 225 0 min 0 W/m 10,1 C 10,9 C 19,4 km/h (3 Bft)
16/12/2011 09:53 10,9 C 95 % 990,0 hPa 0,1 mm 15,1 km/h (3 Bft) SO 225 0 min 0 W/m 10,1 C 10,9 C 19,4 km/h (3 Bft)
16/12/2011 09:54 10,9 C 95 % 989,9 hPa 0,0 mm 20,9 km/h (4 Bft) SO 225 0 min 0 W/m 10,1 C 10,9 C 30,6 km/h (5 Bft)
16/12/2011 09:55 10,9 C 95 % 990,0 hPa 0,0 mm 26,6 km/h (4 Bft) SO 225 0 min 0 W/m 10,1 C 10,9 C 30,6 km/h (5 Bft)
16/12/2011 09:55 10,9 C 95 % 990,0 hPa 0,0 mm 26,6 km/h (4 Bft) SO 225 0 min 0 W/m 10,1 C 10,9 C 30,6 km/h (5 Bft)
16/12/2011 09:56 10,9 C 95 % 989,8 hPa 0,0 mm 22,3 km/h (4 Bft) S-SO 202 0 min 0 W/m 10,1 C 10,9 C 34,2 km/h (5 Bft)
16/12/2011 09:57 10,9 C 95 % 989,8 hPa 0,1 mm 23,0 km/h (4 Bft) SO 225 0 min 0 W/m 10,1 C 10,9 C 23,0 km/h (4 Bft)
16/12/2011 09:57 10,9 C 95 % 989,8 hPa 0,1 mm 23,0 km/h (4 Bft) SO 225 0 min 0 W/m 10,1 C 10,9 C 23,0 km/h (4 Bft)
16/12/2011 09:58 10,9 C 95 % 989,8 hPa 0,0 mm 28,8 km/h (5 Bft) S-SO 202 0 min 0 W/m 10,1 C 10,9 C 34,6 km/h (5 Bft)
16/12/2011 09:58 10,9 C 95 % 989,8 hPa 0,0 mm 28,8 km/h (5 Bft) S-SO 202 0 min 0 W/m 10,1 C 10,9 C 34,6 km/h (5 Bft)
16/12/2011 09:59 10,9 C 95 % 989,8 hPa 0,0 mm 19,1 km/h (3 Bft) SO 225 0 min 0 W/m 10,1 C 10,9 C 22,7 km/h (4 Bft)
16/12/2011 09:59 10,9 C 95 % 989,8 hPa 0,0 mm 19,1 km/h (3 Bft) SO 225 0 min 0 W/m 10,1 C 10,9 C 22,7 km/h (4 Bft)
16/12/2011 10:00 10,9 C 95 % 989,8 hPa 0,0 mm 19,8 km/h (3 Bft) SO 225 0 min 0 W/m 10,1 C 10,9 C 22,7 km/h (4 Bft)
16/12/2011 10:00 10,9 C 95 % 989,8 hPa 0,0 mm 19,8 km/h (3 Bft) SO 225 0 min 0 W/m 10,1 C 10,9 C 22,7 km/h (4 Bft)
16/12/2011 10:01 10,9 C 95 % 989,8 hPa 0,1 mm 24,8 km/h (4 Bft) S-SO 202 0 min 0 W/m 10,1 C 10,9 C 25,6 km/h (4 Bft)
16/12/2011 10:02 10,9 C 96 % 989,7 hPa 0,0 mm 24,8 km/h (4 Bft) S-SO 202 0 min 0 W/m 10,3 C 10,9 C 30,6 km/h (5 Bft)
16/12/2011 10:03 10,9 C 95 % 989,6 hPa 0,0 mm 20,2 km/h (4 Bft) S-SO 202 0 min 0 W/m 10,1 C 10,9 C 28,8 km/h (5 Bft)
16/12/2011 10:03 10,9 C 95 % 989,6 hPa 0,0 mm 20,2 km/h (4 Bft) S-SO 202 0 min 0 W/m 10,1 C 10,9 C 28,8 km/h (5 Bft)
16/12/2011 10:04 10,9 C 96 % 989,6 hPa 0,1 mm 28,8 km/h (5 Bft) SO 225 0 min 0 W/m 10,3 C 10,9 C 29,9 km/h (5 Bft)
16/12/2011 10:04 10,9 C 96 % 989,6 hPa 0,1 mm 28,8 km/h (5 Bft) SO 225 0 min 0 W/m 10,3 C 10,9 C 29,9 km/h (5 Bft)
16/12/2011 10:05 11,0 C 95 % 989,6 hPa 0,0 mm 28,4 km/h (5 Bft) SO 225 0 min 0 W/m 10,2 C 11,0 C 37,8 km/h (5 Bft)
16/12/2011 10:05 11,0 C 95 % 989,6 hPa 0,0 mm 28,4 km/h (5 Bft) SO 225 0 min 0 W/m 10,2 C 11,0 C 37,8 km/h (5 Bft)
16/12/2011 10:06 11,1 C 96 % 989,6 hPa 0,0 mm 27,0 km/h (5 Bft) S-SO 202 0 min 0 W/m 10,5 C 11,1 C 40,3 km/h (6 Bft)
16/12/2011 10:07 11,1 C 95 % 989,7 hPa 0,1 mm 26,3 km/h (4 Bft) S-SO 202 0 min 0 W/m 10,3 C 11,1 C 28,1 km/h (5 Bft)
16/12/2011 10:08 11,1 C 96 % 989,8 hPa 0,0 mm 25,6 km/h (4 Bft) S-SO 202 0 min 0 W/m 10,5 C 11,1 C 35,6 km/h (5 Bft)
16/12/2011 10:09 11,1 C 96 % 989,8 hPa 0,0 mm 28,8 km/h (5 Bft) SO 225 0 min 0 W/m 10,5 C 11,1 C 41,0 km/h (6 Bft)
16/12/2011 10:10 11,1 C 96 % 989,7 hPa 0,0 mm 31,3 km/h (5 Bft) S 180 0 min 0 W/m 10,5 C 11,1 C 41,0 km/h (6 Bft)
16/12/2011 10:10 11,1 C 96 % 989,7 hPa 0,0 mm 31,3 km/h (5 Bft) S 180 0 min 0 W/m 10,5 C 11,1 C 41,0 km/h (6 Bft)
16/12/2011 10:11 11,1 C 96 % 989,7 hPa 0,1 mm 31,0 km/h (5 Bft) SO 225 0 min 0 W/m 10,5 C 11,1 C 41,4 km/h (6 Bft)
16/12/2011 10:12 11,1 C 96 % 989,6 hPa 0,0 mm 20,9 km/h (4 Bft) S-SO 202 0 min 0 W/m 10,5 C 11,1 C 26,3 km/h (4 Bft)
16/12/2011 10:12 11,1 C 96 % 989,6 hPa 0,0 mm 20,9 km/h (4 Bft) S-SO 202 0 min 0 W/m 10,5 C 11,1 C 26,3 km/h (4 Bft)
16/12/2011 10:13 11,1 C 96 % 989,6 hPa 0,0 mm 20,5 km/h (4 Bft) S 180 0 min 0 W/m 10,5 C 11,1 C 27,4 km/h (5 Bft)
16/12/2011 10:14 11,1 C 96 % 989,6 hPa 0,1 mm 21,2 km/h (4 Bft) SO 225 0 min 0 W/m 10,5 C 11,1 C 24,8 km/h (4 Bft)
16/12/2011 10:14 11,1 C 96 % 989,6 hPa 0,1 mm 21,2 km/h (4 Bft) SO 225 0 min 0 W/m 10,5 C 11,1 C 24,8 km/h (4 Bft)
16/12/2011 10:15 11,1 C 96 % 989,7 hPa 0,0 mm 21,2 km/h (4 Bft) SO 225 0 min 0 W/m 10,5 C 11,1 C 21,2 km/h (4 Bft)
16/12/2011 10:15 11,1 C 96 % 989,7 hPa 0,0 mm 21,2 km/h (4 Bft) SO 225 0 min 0 W/m 10,5 C 11,1 C 21,2 km/h (4 Bft)
16/12/2011 10:16 11,1 C 96 % 989,6 hPa 0,1 mm 14,0 km/h (3 Bft) O-SO 247 0 min 0 W/m 10,5 C 11,1 C 20,9 km/h (4 Bft)
16/12/2011 10:16 11,1 C 96 % 989,6 hPa 0,1 mm 14,0 km/h (3 Bft) O-SO 247 0 min 0 W/m 10,5 C 11,1 C 20,9 km/h (4 Bft)
16/12/2011 10:17 11,1 C 96 % 989,6 hPa 0,0 mm 16,6 km/h (3 Bft) O-SO 247 0 min 0 W/m 10,5 C 11,1 C 17,3 km/h (3 Bft)
16/12/2011 10:17 11,1 C 96 % 989,6 hPa 0,0 mm 16,6 km/h (3 Bft) O-SO 247 0 min 0 W/m 10,5 C 11,1 C 17,3 km/h (3 Bft)
16/12/2011 10:18 11,1 C 96 % 989,6 hPa 0,0 mm 25,2 km/h (4 Bft) S-SO 202 0 min 0 W/m 10,5 C 11,1 C 25,2 km/h (4 Bft)
16/12/2011 10:18 11,1 C 96 % 989,6 hPa 0,0 mm 25,2 km/h (4 Bft) S-SO 202 0 min 0 W/m 10,5 C 11,1 C 25,2 km/h (4 Bft)
16/12/2011 10:19 11,2 C 96 % 989,6 hPa 0,1 mm 22,3 km/h (4 Bft) S-SO 202 0 min 0 W/m 10,6 C 11,2 C 30,2 km/h (5 Bft)
16/12/2011 10:19 11,2 C 96 % 989,6 hPa 0,1 mm 22,3 km/h (4 Bft) S-SO 202 0 min 0 W/m 10,6 C 11,2 C 30,2 km/h (5 Bft)
16/12/2011 10:20 11,2 C 96 % 989,7 hPa 0,0 mm 25,6 km/h (4 Bft) S 180 0 min 0 W/m 10,6 C 11,2 C 39,2 km/h (6 Bft)
16/12/2011 10:20 11,2 C 96 % 989,7 hPa 0,0 mm 25,6 km/h (4 Bft) S 180 0 min 0 W/m 10,6 C 11,2 C 39,2 km/h (6 Bft)
16/12/2011 10:21 11,2 C 96 % 989,7 hPa 0,0 mm 24,5 km/h (4 Bft) SO 225 0 min 0 W/m 10,6 C 11,2 C 36,0 km/h (5 Bft)
16/12/2011 10:22 11,2 C 96 % 989,6 hPa 0,1 mm 28,1 km/h (5 Bft) S-SO 202 0 min 0 W/m 10,6 C 11,2 C 40,3 km/h (6 Bft)
16/12/2011 10:23 11,2 C 96 % 989,7 hPa 0,0 mm 21,6 km/h (4 Bft) S-SO 202 0 min 0 W/m 10,6 C 11,2 C 28,4 km/h (5 Bft)
16/12/2011 10:23 11,2 C 96 % 989,7 hPa 0,0 mm 21,6 km/h (4 Bft) S-SO 202 0 min 0 W/m 10,6 C 11,2 C 28,4 km/h (5 Bft)
16/12/2011 10:24 11,2 C 96 % 989,7 hPa 0,0 mm 18,0 km/h (3 Bft) S-SO 202 0 min 0 W/m 10,6 C 11,2 C 25,6 km/h (4 Bft)
16/12/2011 10:24 11,2 C 96 % 989,7 hPa 0,0 mm 18,0 km/h (3 Bft) S-SO 202 0 min 0 W/m 10,6 C 11,2 C 25,6 km/h (4 Bft)
16/12/2011 10:25 11,2 C 96 % 989,7 hPa 0,1 mm 19,4 km/h (3 Bft) SO 225 0 min 0 W/m 10,6 C 11,2 C 30,2 km/h (5 Bft)
16/12/2011 10:25 11,2 C 96 % 989,7 hPa 0,1 mm 19,4 km/h (3 Bft) SO 225 0 min 0 W/m 10,6 C 11,2 C 30,2 km/h (5 Bft)
16/12/2011 10:26 11,2 C 96 % 989,7 hPa 0,1 mm 24,5 km/h (4 Bft) SO 225 0 min 0 W/m 10,6 C 11,2 C 34,6 km/h (5 Bft)
16/12/2011 10:26 11,2 C 96 % 989,7 hPa 0,1 mm 24,5 km/h (4 Bft) SO 225 0 min 0 W/m 10,6 C 11,2 C 34,6 km/h (5 Bft)
16/12/2011 10:27 11,2 C 96 % 989,8 hPa 0,0 mm 15,8 km/h (3 Bft) S-SO 202 0 min 0 W/m 10,6 C 11,2 C 22,0 km/h (4 Bft)
16/12/2011 10:27 11,2 C 96 % 989,8 hPa 0,0 mm 15,8 km/h (3 Bft) S-SO 202 0 min 0 W/m 10,6 C 11,2 C 22,0 km/h (4 Bft)
16/12/2011 10:28 11,2 C 96 % 989,7 hPa 0,0 mm 19,8 km/h (3 Bft) SO 225 0 min 0 W/m 10,6 C 11,2 C 28,8 km/h (5 Bft)
16/12/2011 10:28 11,2 C 96 % 989,7 hPa 0,0 mm 19,8 km/h (3 Bft) SO 225 0 min 0 W/m 10,6 C 11,2 C 28,8 km/h (5 Bft)
16/12/2011 10:29 11,2 C 96 % 989,7 hPa 0,1 mm 27,4 km/h (5 Bft) O-SO 247 0 min 0 W/m 10,6 C 11,2 C 34,9 km/h (5 Bft)
16/12/2011 10:29 11,2 C 96 % 989,7 hPa 0,1 mm 27,4 km/h (5 Bft) O-SO 247 0 min 0 W/m 10,6 C 11,2 C 34,9 km/h (5 Bft)
16/12/2011 10:30 11,2 C 96 % 989,6 hPa 0,0 mm 18,0 km/h (3 Bft) O-SO 247 0 min 0 W/m 10,6 C 11,2 C 30,6 km/h (5 Bft)
16/12/2011 10:30 11,2 C 96 % 989,6 hPa 0,0 mm 18,0 km/h (3 Bft) O-SO 247 0 min 0 W/m 10,6 C 11,2 C 30,6 km/h (5 Bft)
16/12/2011 10:31 11,2 C 96 % 989,6 hPa 0,1 mm 17,6 km/h (3 Bft) SO 225 0 min 0 W/m 10,6 C 11,2 C 25,2 km/h (4 Bft)
16/12/2011 10:31 11,2 C 96 % 989,6 hPa 0,1 mm 17,6 km/h (3 Bft) SO 225 0 min 0 W/m 10,6 C 11,2 C 25,2 km/h (4 Bft)
16/12/2011 10:32 11,2 C 96 % 989,7 hPa 0,0 mm 10,8 km/h (2 Bft) S-SO 202 0 min 0 W/m 10,6 C 11,2 C 14,4 km/h (3 Bft)
16/12/2011 10:32 11,2 C 96 % 989,7 hPa 0,0 mm 10,8 km/h (2 Bft) S-SO 202 0 min 0 W/m 10,6 C 11,2 C 14,4 km/h (3 Bft)
16/12/2011 10:33 11,2 C 96 % 989,7 hPa 0,0 mm 16,6 km/h (3 Bft) S-SO 202 0 min 0 W/m 10,6 C 11,2 C 21,2 km/h (4 Bft)
16/12/2011 10:33 11,2 C 96 % 989,7 hPa 0,0 mm 16,6 km/h (3 Bft) S-SO 202 0 min 0 W/m 10,6 C 11,2 C 21,2 km/h (4 Bft)
16/12/2011 10:34 11,2 C 96 % 989,7 hPa 0,1 mm 20,5 km/h (4 Bft) SO 225 0 min 0 W/m 10,6 C 11,2 C 24,8 km/h (4 Bft)
16/12/2011 10:35 11,2 C 96 % 989,7 hPa 0,1 mm 23,8 km/h (4 Bft) SO 225 0 min 0 W/m 10,6 C 11,2 C 32,8 km/h (5 Bft)
16/12/2011 10:40 11,3 C 96 % 990,9 hPa 0,7 mm 17,6 km/h (3 Bft) S 180 0 min 0 W/m 10,7 C 11,3 C 28,4 km/h (5 Bft)
16/12/2011 10:40 11,3 C 96 % 990,9 hPa 0,7 mm 17,6 km/h (3 Bft) S 180 0 min 0 W/m 10,7 C 11,3 C 28,4 km/h (5 Bft)
16/12/2011 10:45 11,3 C 96 % 991,6 hPa 0,6 mm 16,6 km/h (3 Bft) SO 225 0 min 0 W/m 10,7 C 11,3 C 29,9 km/h (5 Bft)
16/12/2011 10:45 11,3 C 96 % 991,6 hPa 0,6 mm 16,6 km/h (3 Bft) SO 225 0 min 0 W/m 10,7 C 11,3 C 29,9 km/h (5 Bft)
16/12/2011 10:50 11,2 C 96 % 992,1 hPa 0,2 mm 6,8 km/h (2 Bft) O 270 0 min 0 W/m 10,6 C 11,2 C 12,6 km/h (3 Bft)
16/12/2011 10:50 11,2 C 96 % 992,1 hPa 0,2 mm 6,8 km/h (2 Bft) O 270 0 min 0 W/m 10,6 C 11,2 C 12,6 km/h (3 Bft)
16/12/2011 10:55 11,1 C 95 % 992,4 hPa 0,3 mm 10,1 km/h (2 Bft) O-SO 247 0 min 0 W/m 10,3 C 11,1 C 14,4 km/h (3 Bft)
16/12/2011 10:55 11,1 C 95 % 992,4 hPa 0,3 mm 10,1 km/h (2 Bft) O-SO 247 0 min 0 W/m 10,3 C 11,1 C 14,4 km/h (3 Bft)
16/12/2011 11:00 10,9 C 95 % 992,4 hPa 0,1 mm 12,2 km/h (2 Bft) O-SO 247 0 min 0 W/m 10,1 C 10,9 C 24,1 km/h (4 Bft)
16/12/2011 11:05 10,8 C 95 % 992,5 hPa 0,1 mm 7,6 km/h (2 Bft) O-SO 247 0 min 0 W/m 10,0 C 10,8 C 18,0 km/h (3 Bft)
16/12/2011 11:05 10,8 C 95 % 992,5 hPa 0,1 mm 7,6 km/h (2 Bft) O-SO 247 0 min 0 W/m 10,0 C 10,8 C 18,0 km/h (3 Bft)
16/12/2011 11:10 10,8 C 95 % 992,5 hPa 0,0 mm 8,6 km/h (2 Bft) O 270 0 min 0 W/m 10,0 C 10,8 C 14,0 km/h (3 Bft)
16/12/2011 11:10 10,8 C 95 % 992,5 hPa 0,0 mm 8,6 km/h (2 Bft) O 270 0 min 0 W/m 10,0 C 10,8 C 14,0 km/h (3 Bft)
16/12/2011 11:15 10,6 C 95 % 992,4 hPa 0,0 mm 7,6 km/h (2 Bft) N-NE 22 0 min 0 W/m 9,8 C 10,6 C 24,1 km/h (4 Bft)
16/12/2011 11:15 10,6 C 95 % 992,4 hPa 0,0 mm 7,6 km/h (2 Bft) N-NE 22 0 min 0 W/m 9,8 C 10,6 C 24,1 km/h (4 Bft)
16/12/2011 11:20 10,6 C 95 % 992,5 hPa 0,1 mm 11,9 km/h (2 Bft) O-SO 247 0 min 0 W/m 9,8 C 10,6 C 11,9 km/h (2 Bft)
16/12/2011 11:20 10,6 C 95 % 992,5 hPa 0,1 mm 11,9 km/h (2 Bft) O-SO 247 0 min 0 W/m 9,8 C 10,6 C 11,9 km/h (2 Bft)
16/12/2011 11:25 10,5 C 95 % 992,4 hPa 0,1 mm 4,3 km/h (1 Bft) O-SO 247 0 min 0 W/m 9,7 C 10,5 C 15,8 km/h (3 Bft)
16/12/2011 11:25 10,5 C 95 % 992,4 hPa 0,1 mm 4,3 km/h (1 Bft) O-SO 247 0 min 0 W/m 9,7 C 10,5 C 15,8 km/h (3 Bft)
16/12/2011 11:30 10,4 C 94 % 992,4 hPa 0,1 mm 14,4 km/h (3 Bft) O 270 0 min 0 W/m 9,5 C 10,4 C 14,4 km/h (3 Bft)
16/12/2011 11:30 10,4 C 94 % 992,4 hPa 0,1 mm 14,4 km/h (3 Bft) O 270 0 min 0 W/m 9,5 C 10,4 C 14,4 km/h (3 Bft)
16/12/2011 11:35 10,3 C 94 % 992,5 hPa 0,1 mm 5,8 km/h (2 Bft) SO 225 0 min 0 W/m 9,4 C 10,3 C 9,4 km/h (2 Bft)
16/12/2011 11:35 10,3 C 94 % 992,5 hPa 0,1 mm 5,8 km/h (2 Bft) SO 225 0 min 0 W/m 9,4 C 10,3 C 9,4 km/h (2 Bft)
16/12/2011 11:40 10,1 C 93 % 992,6 hPa 0,1 mm 5,0 km/h (1 Bft) O-SO 247 0 min 0 W/m 9,0 C 10,1 C 7,9 km/h (2 Bft)
16/12/2011 11:40 10,1 C 93 % 992,6 hPa 0,1 mm 5,0 km/h (1 Bft) O-SO 247 0 min 0 W/m 9,0 C 10,1 C 7,9 km/h (2 Bft)
16/12/2011 11:45 10,0 C 93 % 992,6 hPa 0,0 mm 10,4 km/h (2 Bft) S 180 0 min 0 W/m 8,9 C 8,6 C 10,4 km/h (2 Bft)
16/12/2011 11:45 10,0 C 93 % 992,6 hPa 0,0 mm 10,4 km/h (2 Bft) S 180 0 min 0 W/m 8,9 C 8,6 C 10,4 km/h (2 Bft)
16/12/2011 11:50 9,8 C 93 % 992,8 hPa 0,1 mm 4,0 km/h (1 Bft) SO 225 0 min 0 W/m 8,7 C 9,8 C 12,6 km/h (3 Bft)
16/12/2011 11:50 9,8 C 93 % 992,8 hPa 0,1 mm 4,0 km/h (1 Bft) SO 225 0 min 0 W/m 8,7 C 9,8 C 12,6 km/h (3 Bft)
16/12/2011 11:55 9,8 C 93 % 993,0 hPa 0,0 mm 14,0 km/h (3 Bft) SO 225 0 min 0 W/m 8,7 C 7,8 C 25,6 km/h (4 Bft)
16/12/2011 12:00 9,6 C 93 % 993,2 hPa 0,2 mm 7,2 km/h (2 Bft) O 270 0 min 0 W/m 8,5 C 8,7 C 15,1 km/h (3 Bft)
16/12/2011 12:05 9,5 C 93 % 993,2 hPa 0,1 mm 8,3 km/h (2 Bft) O 270 0 min 0 W/m 8,4 C 8,4 C 19,8 km/h (3 Bft)
16/12/2011 12:10 9,4 C 93 % 993,2 hPa 0,1 mm 9,7 km/h (2 Bft) SO 225 0 min 0 W/m 8,3 C 8,0 C 9,7 km/h (2 Bft)
16/12/2011 12:15 9,3 C 93 % 993,5 hPa 0,1 mm 9,4 km/h (2 Bft) O 270 0 min 0 W/m 8,2 C 7,9 C 16,6 km/h (3 Bft)
16/12/2011 12:20 9,2 C 93 % 993,6 hPa 0,0 mm 5,4 km/h (2 Bft) O 270 0 min 0 W/m 8,1 C 8,7 C 12,2 km/h (2 Bft)
16/12/2011 12:25 9,1 C 93 % 993,6 hPa 0,1 mm 11,5 km/h (2 Bft) O 270 0 min 0 W/m 8,0 C 7,3 C 24,1 km/h (4 Bft)
16/12/2011 12:30 9,1 C 93 % 993,8 hPa 0,1 mm 11,5 km/h (2 Bft) O-SO 247 0 min 0 W/m 8,0 C 7,3 C 21,6 km/h (4 Bft)
16/12/2011 12:35 8,9 C 93 % 994,1 hPa 0,0 mm 6,1 km/h (2 Bft) O-SO 247 0 min 0 W/m 7,8 C 8,2 C 10,1 km/h (2 Bft)
16/12/2011 12:40 8,9 C 93 % 994,3 hPa 0,0 mm 6,1 km/h (2 Bft) O-NO 292 0 min 0 W/m 7,8 C 8,2 C 23,8 km/h (4 Bft)
16/12/2011 12:45 8,8 C 94 % 994,3 hPa 0,0 mm 8,6 km/h (2 Bft) O-NO 292 0 min 0 W/m 7,9 C 7,5 C 20,5 km/h (4 Bft)
16/12/2011 12:50 8,8 C 93 % 994,4 hPa 0,0 mm 8,6 km/h (2 Bft) NO 315 0 min 0 W/m 7,7 C 7,5 C 8,6 km/h (2 Bft)
16/12/2011 12:55 8,6 C 93 % 994,7 hPa 0,0 mm 10,1 km/h (2 Bft) O-NO 292 0 min 0 W/m 7,5 C 6,9 C 23,4 km/h (4 Bft)
16/12/2011 13:00 8,6 C 93 % 994,5 hPa 0,0 mm 7,6 km/h (2 Bft) SO 225 0 min 0 W/m 7,5 C 7,5 C 11,2 km/h (2 Bft)
16/12/2011 13:05 8,5 C 93 % 994,8 hPa 0,0 mm 11,9 km/h (2 Bft) O 270 0 min 0 W/m 7,4 C 6,5 C 15,5 km/h (3 Bft)
16/12/2011 13:10 8,5 C 93 % 994,9 hPa 0,0 mm 4,0 km/h (1 Bft) S-SO 202 0 min 0 W/m 7,4 C 8,5 C 14,0 km/h (3 Bft)
16/12/2011 13:15 8,5 C 92 % 995,2 hPa 0,0 mm 7,9 km/h (2 Bft) SO 225 0 min 0 W/m 7,3 C 7,3 C 9,7 km/h (2 Bft)
16/12/2011 13:20 8,4 C 92 % 995,5 hPa 0,0 mm 6,1 km/h (2 Bft) O 270 0 min 0 W/m 7,2 C 7,6 C 15,8 km/h (3 Bft)
16/12/2011 13:25 8,4 C 91 % 995,7 hPa 0,0 mm 16,6 km/h (3 Bft) O-NO 292 0 min 0 W/m 7,0 C 5,7 C 18,7 km/h (3 Bft)
16/12/2011 13:30 8,4 C 91 % 996,0 hPa 0,0 mm 8,6 km/h (2 Bft) O-SO 247 0 min 0 W/m 7,0 C 7,0 C 8,6 km/h (2 Bft)
16/12/2011 13:35 8,4 C 90 % 996,1 hPa 0,0 mm 8,6 km/h (2 Bft) O 270 0 min 0 W/m 6,9 C 7,0 C 16,9 km/h (3 Bft)
16/12/2011 13:40 8,4 C 90 % 996,2 hPa 0,0 mm 11,9 km/h (2 Bft) O-SO 247 0 min 0 W/m 6,9 C 6,4 C 11,9 km/h (2 Bft)
16/12/2011 13:45 8,4 C 89 % 996,4 hPa 0,0 mm 4,7 km/h (1 Bft) NO 315 0 min 0 W/m 6,7 C 8,0 C 20,5 km/h (4 Bft)
16/12/2011 13:50 8,4 C 89 % 996,6 hPa 0,0 mm 10,1 km/h (2 Bft) SO 225 0 min 0 W/m 6,7 C 6,7 C 14,8 km/h (3 Bft)
16/12/2011 13:55 8,4 C 89 % 996,8 hPa 0,0 mm 14,0 km/h (3 Bft) O-NO 292 0 min 0 W/m 6,7 C 6,1 C 18,4 km/h (3 Bft)
16/12/2011 14:00 8,4 C 89 % 997,0 hPa 0,0 mm 11,5 km/h (2 Bft) O 270 0 min 0 W/m 6,7 C 6,5 C 20,9 km/h (4 Bft)
16/12/2011 14:05 8,4 C 88 % 997,1 hPa 0,0 mm 11,5 km/h (2 Bft) O 270 0 min 0 W/m 6,5 C 6,5 C 13,0 km/h (3 Bft)
16/12/2011 14:10 8,4 C 87 % 997,2 hPa 0,0 mm 5,8 km/h (2 Bft) O 270 0 min 0 W/m 6,4 C 7,7 C 15,8 km/h (3 Bft)
16/12/2011 14:15 8,4 C 87 % 997,3 hPa 0,0 mm 7,6 km/h (2 Bft) O 270 0 min 0 W/m 6,4 C 7,2 C 16,2 km/h (3 Bft)
16/12/2011 14:20 8,3 C 87 % 997,3 hPa 0,0 mm 4,3 km/h (1 Bft) O 270 0 min 0 W/m 6,3 C 8,3 C 13,0 km/h (3 Bft)
16/12/2011 14:25 8,3 C 85 % 997,5 hPa 0,0 mm 13,0 km/h (3 Bft) NO 315 0 min 0 W/m 5,9 C 6,1 C 30,6 km/h (5 Bft)
16/12/2011 14:30 8,3 C 85 % 997,6 hPa 0,0 mm 13,0 km/h (3 Bft) N-NO 337 0 min 0 W/m 5,9 C 6,1 C 24,5 km/h (4 Bft)
16/12/2011 14:35 8,2 C 84 % 997,8 hPa 0,0 mm 7,9 km/h (2 Bft) O 270 0 min 0 W/m 5,7 C 6,9 C 19,8 km/h (3 Bft)
16/12/2011 14:40 8,1 C 84 % 998,0 hPa 0,0 mm 4,3 km/h (1 Bft) O 270 0 min 0 W/m 5,6 C 8,1 C 10,4 km/h (2 Bft)
16/12/2011 14:45 8,0 C 83 % 998,0 hPa 0,0 mm 6,1 km/h (2 Bft) O-SO 247 0 min 0 W/m 5,3 C 7,1 C 6,5 km/h (2 Bft)
16/12/2011 14:50 7,9 C 83 % 998,3 hPa 0,0 mm 5,4 km/h (2 Bft) O-SO 247 0 min 0 W/m 5,2 C 7,2 C 5,8 km/h (2 Bft)
16/12/2011 14:55 7,8 C 82 % 998,4 hPa 0,0 mm 8,6 km/h (2 Bft) O 270 0 min 0 W/m 4,9 C 6,3 C 14,4 km/h (3 Bft)
16/12/2011 15:00 7,8 C 81 % 998,5 hPa 0,0 mm 6,8 km/h (2 Bft) O 270 0 min 0 W/m 4,7 C 6,7 C 15,5 km/h (3 Bft)
16/12/2011 15:05 7,8 C 81 % 998,7 hPa 0,0 mm 5,8 km/h (2 Bft) O-SO 247 0 min 0 W/m 4,7 C 7,0 C 5,8 km/h (2 Bft)
16/12/2011 15:10 7,8 C 82 % 998,8 hPa 0,0 mm 5,0 km/h (1 Bft) O 270 0 min 0 W/m 4,9 C 7,3 C 12,6 km/h (3 Bft)
16/12/2011 15:15 7,7 C 82 % 998,8 hPa 0,0 mm 5,0 km/h (1 Bft) O-SO 247 0 min 0 W/m 4,8 C 7,1 C 10,8 km/h (2 Bft)
16/12/2011 15:20 7,7 C 83 % 999,0 hPa 0,0 mm 1,1 km/h (1 Bft) O-SO 247 0 min 0 W/m 5,0 C 7,7 C 1,1 km/h (1 Bft)
16/12/2011 15:25 7,6 C 82 % 999,0 hPa 0,0 mm 4,7 km/h (1 Bft) SO 225 0 min 0 W/m 4,7 C 7,1 C 10,1 km/h (2 Bft)
16/12/2011 15:30 7,6 C 82 % 999,2 hPa 0,0 mm 8,6 km/h (2 Bft) O-SO 247 0 min 0 W/m 4,7 C 6,1 C 18,7 km/h (3 Bft)
16/12/2011 15:35 7,6 C 81 % 999,5 hPa 0,0 mm 2,9 km/h (1 Bft) SO 225 0 min 0 W/m 4,6 C 7,6 C 8,6 km/h (2 Bft)
16/12/2011 15:40 7,6 C 81 % 999,7 hPa 0,0 mm 1,8 km/h (1 Bft) O 270 0 min 0 W/m 4,6 C 7,6 C 6,5 km/h (2 Bft)
16/12/2011 15:45 7,6 C 82 % 999,8 hPa 0,0 mm 9,0 km/h (2 Bft) O-NO 292 0 min 0 W/m 4,7 C 6,0 C 12,6 km/h (3 Bft)
16/12/2011 15:50 7,6 C 82 % 999,7 hPa 0,0 mm 2,5 km/h (1 Bft) O 270 0 min 0 W/m 4,7 C 7,6 C 6,1 km/h (2 Bft)
16/12/2011 15:55 7,5 C 82 % 999,7 hPa 0,0 mm 9,7 km/h (2 Bft) O 270 0 min 0 W/m 4,6 C 5,7 C 17,3 km/h (3 Bft)
16/12/2011 16:00 7,5 C 83 % 1000,1 hPa 0,0 mm 4,7 km/h (1 Bft) O-SO 247 0 min 0 W/m 4,8 C 7,0 C 11,9 km/h (2 Bft)
16/12/2011 16:05 7,4 C 82 % 1000,7 hPa 0,0 mm 14,8 km/h (3 Bft) NE 45 0 min 0 W/m 4,5 C 4,7 C 23,4 km/h (4 Bft)
16/12/2011 16:10 7,2 C 81 % 1001,0 hPa 0,1 mm 13,7 km/h (3 Bft) N 360 0 min 0 W/m 4,2 C 4,7 C 13,7 km/h (3 Bft)
16/12/2011 16:15 6,8 C 81 % 1001,2 hPa 0,0 mm 13,3 km/h (3 Bft) O 270 0 min 0 W/m 3,8 C 4,2 C 18,4 km/h (3 Bft)
16/12/2011 16:20 6,3 C 82 % 1001,1 hPa 0,0 mm 11,9 km/h (2 Bft) O-SO 247 0 min 0 W/m 3,5 C 3,8 C 11,9 km/h (2 Bft)
16/12/2011 16:25 6,0 C 83 % 1001,4 hPa 0,0 mm 12,6 km/h (3 Bft) O 270 0 min 0 W/m 3,3 C 3,4 C 16,9 km/h (3 Bft)
16/12/2011 16:30 5,8 C 84 % 1001,4 hPa 0,0 mm 4,3 km/h (1 Bft) O-SO 247 0 min 0 W/m 3,3 C 5,8 C 9,0 km/h (2 Bft)
16/12/2011 16:35 5,7 C 86 % 1001,6 hPa 0,0 mm 6,8 km/h (2 Bft) O-SO 247 0 min 0 W/m 3,5 C 4,3 C 14,4 km/h (3 Bft)
16/12/2011 16:40 5,6 C 86 % 1001,7 hPa 0,0 mm 1,1 km/h (1 Bft) O 270 0 min 0 W/m 3,4 C 5,6 C 3,2 km/h (1 Bft)
16/12/2011 16:45 5,5 C 87 % 1001,8 hPa 0,0 mm 8,3 km/h (2 Bft) O 270 0 min 0 W/m 3,5 C 3,6 C 18,0 km/h (3 Bft)
16/12/2011 16:50 5,5 C 88 % 1001,9 hPa 0,0 mm 7,2 km/h (2 Bft) O-NO 292 0 min 0 W/m 3,7 C 3,9 C 9,0 km/h (2 Bft)
16/12/2011 16:55 5,4 C 88 % 1002,1 hPa 0,0 mm 6,1 km/h (2 Bft) O-NO 292 0 min 0 W/m 3,6 C 4,2 C 11,9 km/h (2 Bft)
16/12/2011 17:00 5,4 C 87 % 1002,3 hPa 0,0 mm 6,5 km/h (2 Bft) O-SO 247 0 min 0 W/m 3,4 C 4,0 C 18,7 km/h (3 Bft)
16/12/2011 17:05 5,4 C 87 % 1002,4 hPa 0,0 mm 4,3 km/h (1 Bft) O-SO 247 0 min 0 W/m 3,4 C 5,4 C 8,3 km/h (2 Bft)
16/12/2011 17:10 5,4 C 87 % 1002,5 hPa 0,0 mm 7,9 km/h (2 Bft) O 270 0 min 0 W/m 3,4 C 3,6 C 11,9 km/h (2 Bft)
16/12/2011 17:15 5,3 C 86 % 1002,5 hPa 0,0 mm 8,3 km/h (2 Bft) O-SO 247 0 min 0 W/m 3,2 C 3,4 C 16,2 km/h (3 Bft)
16/12/2011 17:20 5,3 C 86 % 1002,5 hPa 0,0 mm 4,3 km/h (1 Bft) O 270 0 min 0 W/m 3,2 C 5,3 C 7,6 km/h (2 Bft)
16/12/2011 17:25 5,2 C 85 % 1002,8 hPa 0,0 mm 5,8 km/h (2 Bft) SO 225 0 min 0 W/m 2,9 C 4,0 C 10,4 km/h (2 Bft)
16/12/2011 17:30 5,2 C 85 % 1002,9 hPa 0,0 mm 4,3 km/h (1 Bft) O-NO 292 0 min 0 W/m 2,9 C 5,2 C 9,0 km/h (2 Bft)
16/12/2011 17:35 5,1 C 85 % 1002,8 hPa 0,0 mm 10,8 km/h (2 Bft) SO 225 0 min 0 W/m 2,8 C 2,6 C 19,4 km/h (3 Bft)
16/12/2011 17:40 5,1 C 85 % 1003,0 hPa 0,0 mm 2,9 km/h (1 Bft) S-SO 202 0 min 0 W/m 2,8 C 5,1 C 7,6 km/h (2 Bft)
16/12/2011 17:45 5,1 C 85 % 1003,0 hPa 0,0 mm 4,3 km/h (1 Bft) SO 225 0 min 0 W/m 2,8 C 5,1 C 10,1 km/h (2 Bft)
16/12/2011 17:50 5,1 C 85 % 1003,0 hPa 0,0 mm 2,5 km/h (1 Bft) S-SO 202 0 min 0 W/m 2,8 C 5,1 C 11,9 km/h (2 Bft)
16/12/2011 17:55 5,1 C 85 % 1003,0 hPa 0,0 mm 3,2 km/h (1 Bft) SO 225 0 min 0 W/m 2,8 C 5,1 C 13,0 km/h (3 Bft)
16/12/2011 18:00 5,1 C 85 % 1003,1 hPa 0,0 mm 4,0 km/h (1 Bft) SO 225 0 min 0 W/m 2,8 C 5,1 C 6,5 km/h (2 Bft)
16/12/2011 18:05 5,1 C 85 % 1003,2 hPa 0,0 mm 2,5 km/h (1 Bft) O-NO 292 0 min 0 W/m 2,8 C 5,1 C 11,2 km/h (2 Bft)
16/12/2011 18:10 5,0 C 85 % 1003,3 hPa 0,0 mm 4,7 km/h (1 Bft) S-SO 202 0 min 0 W/m 2,7 C 4,2 C 14,8 km/h (3 Bft)
16/12/2011 18:15 5,1 C 85 % 1003,3 hPa 0,0 mm 1,4 km/h (1 Bft) S 180 0 min 0 W/m 2,8 C 5,1 C 4,7 km/h (1 Bft)
16/12/2011 18:20 5,1 C 86 % 1003,3 hPa 0,0 mm 1,8 km/h (1 Bft) SO 225 0 min 0 W/m 3,0 C 5,1 C 3,6 km/h (1 Bft)
16/12/2011 18:25 4,9 C 86 % 1003,4 hPa 0,0 mm 5,0 km/h (1 Bft) O 270 0 min 0 W/m 2,8 C 4,0 C 5,0 km/h (1 Bft)
16/12/2011 18:30 4,9 C 86 % 1003,4 hPa 0,0 mm 1,8 km/h (1 Bft) O-SO 247 0 min 0 W/m 2,8 C 4,9 C 6,1 km/h (2 Bft)
16/12/2011 18:35 4,9 C 86 % 1003,3 hPa 0,0 mm 3,6 km/h (1 Bft) S 180 0 min 0 W/m 2,8 C 4,9 C 8,6 km/h (2 Bft)
16/12/2011 18:40 4,9 C 86 % 1003,4 hPa 0,0 mm 4,0 km/h (1 Bft) O-SO 247 0 min 0 W/m 2,8 C 4,9 C 9,7 km/h (2 Bft)
16/12/2011 18:45 4,9 C 86 % 1003,5 hPa 0,0 mm 3,6 km/h (1 Bft) S-SE 157 0 min 0 W/m 2,8 C 4,9 C 6,8 km/h (2 Bft)
16/12/2011 18:50 5,0 C 86 % 1003,6 hPa 0,0 mm 3,6 km/h (1 Bft) SO 225 0 min 0 W/m 2,9 C 5,0 C 9,4 km/h (2 Bft)
16/12/2011 18:55 5,1 C 86 % 1003,6 hPa 0,0 mm 7,6 km/h (2 Bft) O-SO 247 0 min 0 W/m 3,0 C 3,4 C 14,4 km/h (3 Bft)
16/12/2011 19:00 5,1 C 86 % 1003,6 hPa 0,0 mm 3,2 km/h (1 Bft) O-NO 292 0 min 0 W/m 3,0 C 5,1 C 10,4 km/h (2 Bft)
16/12/2011 19:05 5,2 C 86 % 1003,8 hPa 0,0 mm 6,1 km/h (2 Bft) O-SO 247 0 min 0 W/m 3,1 C 3,9 C 9,0 km/h (2 Bft)
16/12/2011 19:10 5,3 C 86 % 1003,7 hPa 0,0 mm 5,4 km/h (2 Bft) O 270 0 min 0 W/m 3,2 C 4,3 C 9,7 km/h (2 Bft)
16/12/2011 19:15 5,4 C 85 % 1003,7 hPa 0,0 mm 7,6 km/h (2 Bft) O 270 0 min 0 W/m 3,1 C 3,7 C 7,6 km/h (2 Bft)
16/12/2011 19:20 5,4 C 84 % 1003,7 hPa 0,0 mm 6,8 km/h (2 Bft) S-SO 202 0 min 0 W/m 2,9 C 3,9 C 16,2 km/h (3 Bft)
16/12/2011 19:25 5,4 C 84 % 1003,6 hPa 0,0 mm 9,7 km/h (2 Bft) O-SO 247 0 min 0 W/m 2,9 C 3,2 C 14,8 km/h (3 Bft)
16/12/2011 19:30 5,2 C 85 % 1003,5 hPa 0,0 mm 4,7 km/h (1 Bft) SO 225 0 min 0 W/m 2,9 C 4,4 C 7,6 km/h (2 Bft)
16/12/2011 19:35 5,1 C 86 % 1003,5 hPa 0,0 mm 6,8 km/h (2 Bft) O-SO 247 0 min 0 W/m 3,0 C 3,6 C 12,6 km/h (3 Bft)
16/12/2011 19:40 4,8 C 86 % 1003,7 hPa 0,0 mm 6,8 km/h (2 Bft) O-SO 247 0 min 0 W/m 2,7 C 3,2 C 13,0 km/h (3 Bft)
16/12/2011 19:45 4,8 C 87 % 1003,9 hPa 0,2 mm 6,5 km/h (2 Bft) SO 225 0 min 0 W/m 2,8 C 3,3 C 6,8 km/h (2 Bft)
16/12/2011 19:50 4,6 C 88 % 1003,7 hPa 0,2 mm 6,5 km/h (2 Bft) SO 225 0 min 0 W/m 2,8 C 3,1 C 13,7 km/h (3 Bft)
16/12/2011 19:55 4,4 C 88 % 1003,8 hPa 0,2 mm 11,9 km/h (2 Bft) S 180 0 min 0 W/m 2,6 C 1,5 C 26,3 km/h (4 Bft)
16/12/2011 20:00 4,3 C 89 % 1003,6 hPa 0,1 mm 5,0 km/h (1 Bft) S-SO 202 0 min 0 W/m 2,7 C 3,3 C 12,6 km/h (3 Bft)
16/12/2011 20:05 4,1 C 89 % 1003,7 hPa 0,1 mm 5,0 km/h (1 Bft) O-SO 247 0 min 0 W/m 2,5 C 3,1 C 20,2 km/h (4 Bft)
16/12/2011 20:10 4,1 C 90 % 1003,7 hPa 0,0 mm 0,0 km/h (0 Bft) O-SO 247 0 min 0 W/m 2,6 C 4,1 C 0,0 km/h (0 Bft)
16/12/2011 20:15 3,9 C 90 % 1003,6 hPa 0,0 mm 3,6 km/h (1 Bft) O-SO 247 0 min 0 W/m 2,4 C 3,9 C 12,6 km/h (3 Bft)
16/12/2011 20:20 3,9 C 90 % 1003,5 hPa 0,1 mm 1,8 km/h (1 Bft) SO 225 0 min 0 W/m 2,4 C 3,9 C 1,8 km/h (1 Bft)
16/12/2011 20:25 3,9 C 91 % 1003,8 hPa 0,0 mm 2,2 km/h (1 Bft) O-SO 247 0 min 0 W/m 2,6 C 3,9 C 8,3 km/h (2 Bft)
16/12/2011 20:30 3,8 C 91 % 1003,5 hPa 0,0 mm 5,8 km/h (2 Bft) SO 225 0 min 0 W/m 2,5 C 2,4 C 13,7 km/h (3 Bft)
16/12/2011 20:35 3,8 C 91 % 1003,4 hPa 0,0 mm 6,1 km/h (2 Bft) SO 225 0 min 0 W/m 2,5 C 2,3 C 11,9 km/h (2 Bft)
16/12/2011 20:40 3,7 C 91 % 1003,2 hPa 0,0 mm 4,3 km/h (1 Bft) O-NO 292 0 min 0 W/m 2,4 C 3,7 C 7,9 km/h (2 Bft)
16/12/2011 20:45 3,7 C 91 % 1003,4 hPa 0,0 mm 0,0 km/h (0 Bft) SO 225 0 min 0 W/m 2,4 C 3,7 C 0,0 km/h (0 Bft)
16/12/2011 20:50 3,6 C 91 % 1003,1 hPa 0,0 mm 7,9 km/h (2 Bft) S 180 0 min 0 W/m 2,3 C 1,5 C 7,9 km/h (2 Bft)
16/12/2011 20:55 3,5 C 92 % 1003,0 hPa 0,0 mm 5,8 km/h (2 Bft) S-SO 202 0 min 0 W/m 2,3 C 2,1 C 9,0 km/h (2 Bft)
16/12/2011 21:00 3,5 C 92 % 1002,8 hPa 0,0 mm 5,8 km/h (2 Bft) SO 225 0 min 0 W/m 2,3 C 2,1 C 13,0 km/h (3 Bft)
16/12/2011 21:05 3,5 C 93 % 1002,7 hPa 0,0 mm 8,6 km/h (2 Bft) SO 225 0 min 0 W/m 2,5 C 1,2 C 11,5 km/h (2 Bft)
16/12/2011 21:10 3,6 C 93 % 1002,8 hPa 0,0 mm 9,0 km/h (2 Bft) S-SE 157 0 min 0 W/m 2,6 C 1,2 C 9,0 km/h (2 Bft)
16/12/2011 21:15 3,8 C 94 % 1002,9 hPa 0,0 mm 6,1 km/h (2 Bft) O-SO 247 0 min 0 W/m 2,9 C 2,3 C 6,1 km/h (2 Bft)
16/12/2011 21:20 3,8 C 94 % 1002,8 hPa 0,0 mm 11,9 km/h (2 Bft) SO 225 0 min 0 W/m 2,9 C 0,8 C 15,5 km/h (3 Bft)
16/12/2011 21:25 4,0 C 94 % 1003,0 hPa 0,0 mm 3,6 km/h (1 Bft) O-SO 247 0 min 0 W/m 3,1 C 4,0 C 7,9 km/h (2 Bft)
16/12/2011 21:30 4,2 C 94 % 1003,1 hPa 0,0 mm 7,2 km/h (2 Bft) O-SO 247 0 min 0 W/m 3,3 C 2,4 C 15,1 km/h (3 Bft)
16/12/2011 21:35 4,3 C 94 % 1003,2 hPa 0,0 mm 4,3 km/h (1 Bft) O-SO 247 0 min 0 W/m 3,4 C 4,3 C 10,1 km/h (2 Bft)
16/12/2011 21:40 4,4 C 94 % 1003,4 hPa 0,0 mm 9,7 km/h (2 Bft) O 270 0 min 0 W/m 3,5 C 2,0 C 22,3 km/h (4 Bft)
16/12/2011 21:45 4,6 C 94 % 1003,4 hPa 0,0 mm 7,2 km/h (2 Bft) N-NO 337 0 min 0 W/m 3,7 C 2,9 C 17,6 km/h (3 Bft)
16/12/2011 21:50 4,8 C 93 % 1003,6 hPa 0,0 mm 7,6 km/h (2 Bft) O-SO 247 0 min 0 W/m 3,8 C 3,0 C 23,0 km/h (4 Bft)
16/12/2011 21:55 4,8 C 93 % 1003,7 hPa 0,0 mm 7,6 km/h (2 Bft) S-SO 202 0 min 0 W/m 3,8 C 3,0 C 10,1 km/h (2 Bft)
16/12/2011 22:00 4,9 C 93 % 1004,2 hPa 0,0 mm 12,2 km/h (2 Bft) NO 315 0 min 0 W/m 3,9 C 2,1 C 24,1 km/h (4 Bft)
16/12/2011 22:05 4,6 C 91 % 1004,9 hPa 0,1 mm 7,9 km/h (2 Bft) NO 315 0 min 0 W/m 3,3 C 2,7 C 20,2 km/h (4 Bft)
16/12/2011 22:10 4,1 C 90 % 1004,9 hPa 0,0 mm 5,0 km/h (1 Bft) NE 45 0 min 0 W/m 2,6 C 3,1 C 13,7 km/h (3 Bft)
16/12/2011 22:15 3,6 C 90 % 1005,1 hPa 0,0 mm 4,3 km/h (1 Bft) NE 45 0 min 0 W/m 2,1 C 3,6 C 9,7 km/h (2 Bft)
16/12/2011 22:20 3,2 C 90 % 1004,9 hPa 0,0 mm 1,8 km/h (1 Bft) N-NO 337 0 min 0 W/m 1,7 C 3,2 C 9,0 km/h (2 Bft)
16/12/2011 22:25 2,8 C 90 % 1005,1 hPa 0,0 mm 0,4 km/h (0 Bft) N-NO 337 0 min 0 W/m 1,3 C 2,8 C 0,4 km/h (0 Bft)
16/12/2011 22:30 2,6 C 90 % 1005,3 hPa 0,0 mm 3,6 km/h (1 Bft) NO 315 0 min 0 W/m 1,1 C 2,6 C 6,5 km/h (2 Bft)
16/12/2011 22:35 2,3 C 90 % 1005,3 hPa 0,0 mm 0,0 km/h (0 Bft) NO 315 0 min 0 W/m 0,8 C 2,3 C 0,0 km/h (0 Bft)
16/12/2011 22:40 2,1 C 89 % 1005,6 hPa 0,0 mm 0,0 km/h (0 Bft) NO 315 0 min 0 W/m 0,5 C 2,1 C 0,0 km/h (0 Bft)
16/12/2011 22:45 1,8 C 89 % 1005,8 hPa 0,0 mm 0,0 km/h (0 Bft) NO 315 0 min 0 W/m 0,2 C 1,8 C 0,0 km/h (0 Bft)
16/12/2011 22:50 1,6 C 90 % 1006,1 hPa 0,0 mm 0,4 km/h (0 Bft) NO 315 0 min 0 W/m 0,1 C 1,6 C 0,4 km/h (0 Bft)
16/12/2011 22:55 1,4 C 90 % 1006,2 hPa 0,0 mm 0,0 km/h (0 Bft) O-NO 292 0 min 0 W/m -0,1 C 1,4 C 0,0 km/h (0 Bft)
16/12/2011 23:00 1,2 C 90 % 1006,4 hPa 0,0 mm 0,0 km/h (0 Bft) O-SO 247 0 min 0 W/m -0,3 C 1,2 C 0,0 km/h (0 Bft)
16/12/2011 23:05 0,9 C 91 % 1006,5 hPa 0,0 mm 0,0 km/h (0 Bft) O-SO 247 0 min 0 W/m -0,4 C 0,9 C 0,0 km/h (0 Bft)
16/12/2011 23:10 0,9 C 91 % 1006,6 hPa 0,0 mm 0,7 km/h (0 Bft) O-SO 247 0 min 0 W/m -0,4 C 0,9 C 4,0 km/h (1 Bft)
16/12/2011 23:15 0,8 C 91 % 1006,7 hPa 0,0 mm 0,0 km/h (0 Bft) O-SO 247 0 min 0 W/m -0,5 C 0,8 C 0,0 km/h (0 Bft)
16/12/2011 23:20 0,8 C 92 % 1006,8 hPa 0,0 mm 1,1 km/h (1 Bft) SO 225 0 min 0 W/m -0,3 C 0,8 C 4,3 km/h (1 Bft)
16/12/2011 23:25 0,8 C 92 % 1006,9 hPa 0,0 mm 2,5 km/h (1 Bft) O 270 0 min 0 W/m -0,3 C 0,8 C 3,6 km/h (1 Bft)
_ Min-Heure 23:25 16:15 10:31 - 23:15 - - - - 23:15 23:25 23:15
Minimum _ 0,8 C 81 % 989,6 hPa - 0,0 km/h (0 Bft) - - - - -0,5 C 0,8 C 0,0 km/h (0 Bft)
_ Max-Heure 10:45 10:50 23:25 10:40 09:40 - - 23:25 23:25 10:45 10:45 04:40
Maximum _ 11,3 C 96 % 1006,9 hPa 0,7 mm 33,8 km/h
S-SO (5 Bft)
- - 0 min 0 W/m 10,7 C 11,3 C 56,8 km/h
S (7 Bft)
Moyenne _ 7,9 C 91 % 998,8 hPa #20,8 mm 13,7 km/h (3 Bft) SO - #0 min. 0 W/m 6,6 C 6,7 C 20,4 km/h (4 Bft)
Saint Bonnet de Bellac- Haute Vienne - France